Theta_e
310 311 310 310 312 313 314 314 315 315 314 313 313 312 311 310 311 313 314 313 313 312 312 313 313 313 314 314 315 315 315 317 320 326 332 333 334 337 336 337 341 342 341 341 342 341 341 343 343 341 340 339 338 337 337 338 338 337 336 335 333 334 335 332 329 330 332 332 333 334 334 333 334 334 336 336 336 336 337 336 336 336 336 335 335 335
311 312 312 312 313 315 315 316 317 316 315 314 312 312 312 311 312 313 314 313 313 312 312 313 313 313 314 313 314 315 316 316 316 320 327 330 331 332 335 336 338 341 341 341 342 342 342 342 342 341 340 339 337 336 337 338 338 337 336 335 333 333 334 332 330 331 331 331 332 333 334 333 334 335 336 336 337 336 337 337 336 336 335 336 336 336
312 312 313 313 315 315 316 316 316 316 315 315 313 312 311 312 312 313 314 313 312 312 312 313 313 313 314 314 314 315 316 317 315 316 321 326 329 329 331 335 336 339 341 340 340 342 342 342 342 341 340 339 337 337 337 337 337 337 336 335 334 333 334 332 331 332 331 331 333 333 333 334 335 335 336 336 336 336 336 337 336 335 335 336 336 336
313 313 313 314 314 315 315 315 315 316 315 315 314 312 311 312 312 311 312 313 313 313 313 312 312 313 314 314 314 315 315 316 316 316 317 321 327 328 329 332 336 339 342 341 340 341 342 343 343 341 340 339 338 337 336 337 337 337 336 335 334 334 334 333 331 331 331 331 333 333 333 334 335 335 334 335 335 336 336 336 335 334 334 335 335 335
313 313 314 314 313 314 315 315 315 314 314 314 314 312 311 312 312 311 312 314 313 313 314 313 311 311 313 314 314 315 316 316 315 316 317 319 324 327 329 332 335 339 341 342 341 340 341 343 343 341 340 339 337 336 336 336 337 337 336 336 335 334 333 332 330 330 331 332 333 333 333 334 334 334 334 335 335 336 336 336 335 334 333 334 334 334
314 314 313 313 313 313 314 315 315 314 312 312 315 314 312 312 312 312 313 313 311 311 314 314 309 309 313 315 315 316 317 316 316 317 317 317 321 324 329 332 335 338 340 342 341 339 340 343 343 341 340 338 337 336 336 336 337 336 336 336 336 335 333 330 328 329 330 331 333 334 334 333 334 333 334 335 335 336 335 335 334 333 333 333 333 333
315 315 313 313 313 313 313 313 314 314 312 311 314 315 313 312 312 312 312 312 309 310 314 315 310 309 311 314 317 317 317 317 318 320 319 318 319 321 325 329 334 337 339 340 339 337 339 342 343 341 339 338 337 336 336 336 336 336 337 336 336 336 334 332 330 329 330 332 333 334 333 333 334 333 334 335 335 335 335 334 333 333 333 333 333 332
315 315 314 314 314 313 313 313 314 314 312 312 314 313 312 312 312 313 312 311 311 312 314 315 312 310 309 312 317 318 317 317 319 323 325 323 322 322 323 326 330 335 337 338 337 337 339 341 342 341 339 338 337 336 336 335 336 337 337 337 336 335 335 335 333 332 331 332 333 333 333 332 331 332 334 334 334 334 334 334 333 333 332 332 332 332
316 315 314 314 314 313 313 314 315 314 313 313 313 312 312 312 312 313 312 311 312 313 311 311 313 311 308 311 318 319 316 315 320 328 330 329 328 327 326 328 330 334 336 336 337 338 338 340 341 340 337 337 336 336 336 335 336 337 337 337 336 335 335 335 334 333 332 332 333 333 332 331 330 331 334 333 333 333 333 333 333 333 332 332 332 332
315 314 314 314 314 314 314 314 314 314 314 313 312 312 312 312 312 313 312 311 313 314 311 310 312 311 309 310 314 316 315 316 324 332 332 331 332 331 330 331 333 335 336 336 337 337 338 340 340 338 337 336 336 336 335 334 336 337 337 337 336 335 335 335 334 334 332 333 334 332 331 331 331 333 334 333 332 332 333 333 333 333 333 332 332 332
313 312 312 313 314 314 314 314 314 313 313 312 312 311 312 313 313 314 313 312 313 314 311 311 313 312 310 309 311 318 322 326 330 333 333 333 332 332 332 331 332 333 335 337 337 338 339 340 338 337 336 336 336 336 334 333 335 336 336 337 336 335 335 334 334 334 333 333 333 333 332 331 331 333 333 332 332 332 332 333 333 332 332 332 331 331
313 312 312 313 314 314 313 313 313 313 313 312 312 311 312 312 313 313 313 313 313 312 311 312 313 312 310 309 314 324 328 330 331 332 332 332 332 332 333 331 331 331 334 336 337 337 338 337 336 336 336 335 336 335 332 332 334 335 336 336 336 335 335 334 334 334 334 333 333 333 332 329 330 334 334 333 333 332 332 332 332 332 332 332 331 331
314 313 313 314 313 313 313 312 312 312 312 312 311 312 312 312 313 314 313 313 312 311 313 313 312 312 310 313 321 326 328 330 331 330 330 331 332 332 332 331 331 331 332 334 336 336 335 335 335 336 335 335 335 333 331 332 333 335 335 335 335 335 334 334 334 333 333 333 333 333 332 329 331 335 335 334 334 333 332 331 332 332 331 331 331 331
314 315 314 314 314 313 313 312 312 311 311 312 311 311 312 311 314 315 313 312 311 312 314 314 313 312 309 317 327 329 329 330 330 329 329 330 332 332 332 331 330 331 332 332 334 335 334 334 335 335 335 334 334 332 331 332 334 334 334 334 334 333 332 332 332 331 331 332 332 333 331 329 333 336 334 334 333 333 333 331 330 331 330 330 331 330
313 314 314 314 314 314 314 313 313 313 312 312 312 312 312 311 313 314 312 311 311 312 314 314 314 312 310 319 329 330 330 330 329 329 329 330 332 332 332 332 330 330 331 332 334 333 333 334 335 334 334 334 334 333 333 333 334 334 334 334 333 331 331 331 331 330 330 331 332 333 331 331 334 335 334 334 333 333 333 332 331 331 330 330 330 330
313 313 313 314 313 313 313 313 313 313 312 313 312 311 312 312 312 312 313 314 313 312 313 313 313 312 315 322 328 329 330 329 328 328 329 331 331 331 333 334 333 331 332 332 332 332 332 334 334 333 333 333 333 333 333 333 334 334 334 333 333 331 331 332 331 331 331 331 332 332 332 333 335 334 334 333 330 330 332 332 331 331 330 329 329 329
313 313 313 313 312 312 313 314 313 313 313 313 312 311 312 314 313 312 315 317 314 312 313 313 312 312 316 322 326 329 330 329 329 328 329 331 331 331 334 335 335 334 333 332 331 330 331 333 333 332 332 333 332 332 333 333 333 334 333 333 332 332 331 332 331 332 332 331 331 331 332 334 334 334 334 331 327 328 331 330 329 329 329 328 328 328
314 314 314 313 313 313 312 313 312 313 313 312 311 312 313 314 313 312 314 314 313 313 314 313 313 312 312 318 326 331 330 330 329 328 330 331 331 332 333 334 334 334 333 332 331 330 331 333 332 332 332 332 332 332 333 333 333 333 334 333 333 333 333 332 332 332 332 332 331 332 332 334 334 333 332 328 326 329 329 328 328 327 327 328 327 327
315 314 314 313 314 313 312 312 313 313 313 312 312 313 313 313 313 313 313 313 313 314 313 313 313 311 310 317 327 331 331 331 329 329 330 331 330 331 332 332 333 333 333 333 332 331 331 332 332 332 331 331 332 332 332 332 332 332 333 333 333 333 331 331 331 331 330 332 333 332 333 334 333 332 331 329 328 329 328 327 328 326 327 327 327 327
316 315 316 314 314 314 314 313 312 312 313 312 312 313 313 313 314 314 314 313 313 314 314 314 314 313 317 324 329 331 330 329 329 330 330 328 327 326 327 327 328 330 331 332 333 332 331 332 332 332 331 331 331 332 332 332 332 332 332 333 333 332 329 329 331 330 329 331 333 333 335 335 333 331 330 330 330 328 327 328 328 328 328 327 326 326
316 316 316 316 314 314 315 314 313 313 313 312 311 312 312 313 314 315 314 312 312 313 314 315 313 317 324 328 328 328 328 328 328 329 327 324 322 322 322 321 322 325 327 328 330 332 332 332 332 332 332 331 331 331 332 332 332 332 332 333 333 332 330 331 333 332 330 332 333 335 336 335 333 332 330 330 329 328 328 328 328 328 328 327 326 326
316 317 316 316 316 315 315 316 315 316 315 314 313 312 312 313 313 314 314 312 311 311 313 314 313 320 327 326 326 327 327 327 327 326 324 320 319 318 319 318 318 320 322 323 324 327 330 333 332 332 332 331 331 331 332 333 332 332 333 333 333 333 333 333 333 333 333 333 334 335 335 335 334 332 331 330 329 329 328 328 328 328 327 326 325 325
317 316 316 316 316 315 316 316 315 317 317 317 316 315 315 315 313 314 314 314 313 311 314 313 313 321 326 325 326 326 323 322 322 322 322 319 317 316 317 317 317 317 317 318 318 319 324 330 332 332 332 331 331 331 332 333 333 332 333 333 333 334 333 333 333 334 333 333 333 334 334 335 334 332 331 330 329 329 327 327 327 327 326 326 325 325
317 317 318 318 316 316 317 315 315 317 317 318 320 319 318 317 317 317 317 317 316 313 315 314 314 323 327 325 325 324 321 319 318 319 320 319 316 315 315 315 316 317 316 316 316 317 321 326 327 329 331 332 331 331 332 333 332 332 332 333 334 333 333 334 334 333 332 332 333 334 333 334 333 332 332 330 329 328 327 327 327 327 326 325 325 325
319 319 319 319 319 319 318 317 317 317 317 319 321 322 319 318 320 320 318 317 316 314 315 314 316 325 328 325 324 322 320 318 316 316 317 317 316 314 313 314 314 316 317 316 316 317 318 320 321 323 326 329 329 330 331 332 331 331 332 332 333 333 333 332 331 331 331 332 332 331 331 332 332 332 331 330 328 327 327 327 326 326 326 325 325 326
320 321 319 318 320 321 320 320 320 319 320 320 320 321 321 320 322 321 317 315 314 315 315 314 316 326 327 325 324 323 321 318 315 314 315 315 314 313 313 314 314 315 316 316 316 315 315 316 317 319 322 325 325 326 329 330 330 331 331 332 331 331 329 329 329 328 328 328 328 327 327 327 329 330 331 329 328 327 327 326 326 326 326 325 325 325
319 321 320 319 320 320 320 320 318 317 320 321 320 322 322 322 324 323 318 316 318 318 317 315 318 326 328 326 324 322 320 317 315 314 314 313 313 313 313 313 313 314 314 314 313 312 312 312 312 314 317 320 321 321 323 325 327 330 331 330 328 327 326 327 328 327 326 325 325 325 325 325 326 327 329 329 328 327 326 326 326 326 325 325 325 324
320 320 320 321 320 319 319 318 317 317 318 320 320 322 322 323 324 324 321 321 322 319 318 321 325 328 329 326 322 320 318 316 314 314 313 312 312 312 312 312 313 313 312 312 311 310 309 309 309 311 313 315 317 318 318 320 322 326 328 327 326 327 327 327 326 325 324 324 324 324 324 323 324 325 325 326 327 327 326 326 325 325 325 325 324 322
320 320 320 322 320 318 317 317 316 316 316 318 319 320 321 322 324 325 324 324 324 322 322 325 328 328 325 321 318 318 317 314 313 312 312 311 310 311 311 312 312 311 310 309 308 308 308 308 309 310 310 312 314 315 316 316 318 321 323 325 326 327 327 326 324 323 323 323 323 322 321 321 322 322 321 322 323 324 325 326 325 325 325 324 323 321
318 319 320 321 320 318 317 316 316 316 316 318 318 318 319 320 322 323 323 323 324 326 326 326 325 320 316 314 314 313 313 311 310 310 310 310 309 310 310 310 310 309 308 307 307 307 307 307 308 309 309 310 311 311 312 312 314 316 318 320 322 324 326 326 325 324 323 322 321 320 320 320 320 319 320 320 321 322 323 324 324 324 323 322 321 320
317 318 320 320 320 320 317 316 316 316 317 317 316 316 317 318 320 320 321 320 323 325 325 325 323 317 311 311 311 310 310 310 309 309 309 308 309 309 309 309 308 307 307 306 306 306 305 306 307 307 307 308 309 309 309 310 311 312 313 315 317 318 321 323 323 323 322 321 320 319 319 319 319 319 319 320 320 320 321 322 322 322 322 322 321 320
316 318 320 319 319 320 319 318 317 316 317 317 316 314 315 317 318 319 319 318 320 324 324 324 324 318 311 309 310 309 309 308 308 308 308 308 308 308 308 307 307 306 306 306 306 305 305 305 306 306 306 307 307 308 308 308 308 309 310 312 313 315 317 318 318 318 318 318 318 318 317 317 317 318 318 319 319 319 319 319 319 319 319 320 321 321
316 318 319 319 318 319 320 319 318 317 319 319 315 312 312 314 315 317 318 317 318 320 322 322 321 315 310 309 310 309 308 307 307 307 307 308 308 308 307 306 306 306 306 306 306 305 305 304 305 305 305 305 306 306 306 306 306 307 307 308 311 313 314 314 313 314 313 313 314 314 314 315 316 317 317 317 317 317 317 317 317 317 317 318 319 321
318 318 318 318 317 318 320 319 318 320 321 318 312 309 311 312 312 314 316 315 315 317 317 317 315 312 311 310 309 308 307 306 306 306 307 308 308 307 306 305 305 305 305 305 305 305 305 305 304 304 304 304 304 304 304 305 305 305 305 307 309 310 310 310 310 309 309 309 310 311 312 313 314 314 315 315 316 316 317 317 317 316 316 316 317 319
317 316 317 318 316 317 319 319 320 321 318 314 310 309 310 310 310 312 314 313 312 313 314 314 312 311 310 308 307 306 304 304 304 304 305 306 307 307 306 306 305 305 304 304 304 304 305 304 304 304 304 303 304 304 304 304 304 304 304 305 306 306 306 306 306 306 306 307 307 308 309 310 311 312 313 313 314 315 315 315 316 316 316 316 317 316
316 316 316 316 316 317 317 318 319 318 314 312 311 309 308 309 309 311 314 313 310 310 312 312 310 308 306 306 305 304 303 304 304 303 303 304 304 304 305 305 305 304 304 304 304 304 304 303 303 303 303 302 302 303 304 304 304 304 304 303 303 303 304 304 304 304 304 304 304 305 306 307 308 308 309 310 311 311 311 312 312 312 312 314 315 314
315 316 316 316 316 316 317 317 316 315 314 312 311 308 307 308 307 309 312 312 309 308 310 309 308 306 305 304 304 303 304 305 304 303 303 303 303 303 304 304 304 304 304 304 304 303 303 302 302 302 301 301 302 302 302 303 303 304 303 302 302 302 303 303 303 304 303 303 303 304 304 304 304 305 305 306 306 306 306 306 306 306 307 309 309 308
313 315 315 316 315 314 316 317 316 317 316 312 309 308 306 306 306 306 310 311 308 306 307 307 306 305 304 305 305 305 306 306 304 303 302 302 302 302 303 303 303 304 303 303 303 302 302 302 301 301 300 301 301 302 302 301 302 302 302 301 301 301 302 302 303 303 303 303 303 303 304 303 303 303 304 304 304 304 303 304 304 304 305 305 305 304
311 313 314 315 315 314 315 316 316 316 315 310 308 307 305 305 304 306 312 313 307 305 306 306 305 304 305 305 306 307 308 307 303 302 301 302 302 302 302 302 302 302 302 302 302 302 301 301 301 300 300 300 301 301 302 301 301 301 301 301 300 300 301 301 301 301 301 302 302 303 303 303 303 303 304 304 304 304 304 304 304 304 304 304 304 303
311 312 313 314 315 314 315 315 313 313 311 308 307 306 305 304 305 310 317 314 306 304 305 305 305 306 306 306 306 305 306 305 302 300 301 302 302 302 302 301 301 301 301 301 301 301 301 301 301 300 300 300 300 300 301 301 301 301 301 301 300 300 300 300 300 300 299 300 300 300 300 300 301 301 302 302 302 303 303 304 304 304 305 305 304 304
310 310 311 313 314 313 314 314 312 310 309 306 306 305 304 305 308 314 316 309 304 304 304 304 305 305 304 305 304 302 301 300 299 299 300 302 302 301 301 301 300 300 300 300 300 301 301 301 300 300 300 300 300 300 300 300 301 301 301 300 300 300 299 299 299 299 299 299 299 299 299 299 299 299 300 300 300 300 301 302 302 303 304 304 304 304
309 309 310 312 312 312 313 313 312 311 308 304 305 305 305 308 312 312 308 304 303 303 302 301 302 303 302 301 301 300 299 298 298 299 301 302 302 301 301 301 300 300 300 300 300 300 300 300 300 300 300 300 300 300 300 300 300 300 300 300 300 299 299 299 299 299 299 299 299 299 299 299 299 299 300 300 300 300 300 300 301 301 302 303 303 303
307 309 310 310 310 311 311 311 312 312 307 303 304 306 306 307 309 307 304 304 303 302 300 300 300 300 301 300 300 300 300 299 300 300 301 301 302 302 301 301 300 300 300 300 299 299 299 299 299 299 299 300 300 300 300 300 300 300 300 300 299 299 298 298 298 298 298 298 298 298 298 298 298 299 300 300 300 300 301 301 301 301 302 303 303 304
306 308 310 309 308 310 311 310 309 307 304 303 304 305 305 304 305 305 305 304 302 301 300 300 299 299 300 299 299 300 300 301 301 300 300 300 301 301 301 301 301 300 300 300 299 299 299 299 299 299 299 299 299 299 299 300 300 300 300 300 299 299 298 298 298 298 299 298 299 299 298 298 298 299 299 300 300 301 301 301 301 301 301 302 303 303
306 307 308 307 306 307 307 306 305 304 303 303 303 304 304 304 304 304 304 303 302 301 300 299 299 299 299 299 300 300 301 301 301 300 300 301 301 301 301 301 301 301 300 300 299 299 299 299 299 299 299 299 299 299 299 299 299 299 300 300 300 300 300 299 299 299 299 299 299 299 299 299 299 299 299 299 300 300 300 300 301 301 301 301 302 302
305 306 306 306 305 305 305 304 304 304 304 304 303 304 304 304 304 304 303 302 302 301 301 300 300 300 300 301 302 301 301 301 301 300 301 301 302 302 302 301 301 301 301 300 300 299 299 299 299 299 299 299 299 299 299 298 298 298 299 299 299 300 300 300 300 300 300 299 299 299 299 300 300 300 299 299 300 300 300 300 300 300 300 301 301 301
305 306 306 306 306 306 306 305 305 305 305 305 304 304 304 304 304 303 302 301 301 301 301 301 301 300 301 302 302 301 301 300 300 300 300 301 302 302 301 301 302 301 301 301 301 300 300 300 300 300 299 299 300 299 299 299 298 298 298 298 299 299 299 300 300 300 300 300 299 299 299 299 299 300 300 300 300 300 299 299 300 300 300 301 301 301
305 306 306 305 305 306 306 305 305 305 305 305 305 305 304 304 303 302 302 302 301 301 301 301 301 301 301 301 301 301 300 299 300 300 299 300 301 301 301 301 301 301 301 301 301 301 300 300 300 300 300 300 300 299 299 299 299 298 298 298 299 299 299 299 300 300 300 300 299 299 299 299 299 299 300 299 299 299 298 299 299 300 299 299 299 300
305 304 304 305 304 305 305 305 305 305 305 305 304 304 304 304 303 303 302 302 301 301 301 301 301 301 301 302 302 301 300 300 300 300 299 299 299 299 299 300 301 301 301 301 300 301 300 300 300 300 299 299 300 299 299 299 299 298 298 298 298 299 299 299 300 300 300 300 299 299 299 299 299 299 299 299 299 298 297 296 297 298 298 297 296 296
305 304 304 304 304 304 304 304 305 304 304 304 304 304 304 304 304 303 303 302 301 301 301 301 301 301 302 303 303 301 300 300 301 300 300 299 298 298 298 299 300 300 300 300 300 300 300 300 300 300 299 299 299 299 299 299 299 299 298 298 298 299 299 299 299 300 299 299 299 298 298 299 298 298 299 299 299 299 297 295 295 296 297 296 294 294
305 305 305 303 303 303 303 304 304 304 303 303 304 304 304 304 304 304 304 303 303 303 303 302 301 301 302 302 302 301 300 300 300 300 299 299 298 298 298 299 299 299 300 300 300 299 299 299 299 299 299 299 299 299 299 299 299 299 298 298 299 299 299 299 299 299 299 298 297 297 297 298 298 298 298 298 298 298 298 298 297 296 295 295 294 294
Wind_Speed
6 6 7 8 9 10 11 11 8 3 2 3 4 5 6 6 5 2 3 3 2 6 8 8 10 11 12 13 11 7 6 7 8 8 9 9 10 10 11 13 13 13 12 13 16 16 18 17 15 15 16 18 18 18 18 19 20 21 20 22 24 24 24 25 24 22 20 19 17 14 13 15 15 13 12 13 13 12 12 11 11 10 10 10 10 9
5 7 8 9 6 5 7 7 4 3 4 6 6 7 6 8 5 2 2 3 2 4 6 6 8 10 12 13 13 9 8 9 10 9 10 11 12 11 12 14 14 12 10 13 15 15 17 18 16 14 15 18 19 18 18 20 20 21 20 21 24 25 24 25 23 21 21 21 21 17 15 15 14 13 12 13 12 11 11 11 11 10 10 10 10 9
6 8 10 7 3 2 4 5 5 6 6 6 6 7 6 6 5 2 3 3 4 3 5 6 8 9 11 14 13 11 10 10 11 11 11 13 13 13 13 14 14 12 11 13 15 16 18 19 18 15 15 17 17 18 19 19 20 21 21 21 23 24 25 25 23 21 22 22 21 18 16 13 13 14 14 12 11 11 11 11 10 10 10 9 9 10
5 5 7 6 5 6 6 6 7 6 6 7 6 6 6 4 4 3 4 5 4 5 7 10 9 8 11 13 13 13 13 11 12 12 12 13 14 14 14 13 13 14 14 15 15 16 17 19 19 16 14 15 16 19 19 19 20 21 22 22 23 24 24 23 23 23 22 21 20 19 18 15 13 15 14 12 11 11 10 11 10 9 9 9 9 10
4 2 2 6 8 9 8 8 8 7 6 8 8 8 8 6 6 6 4 3 6 8 9 9 8 8 10 12 12 10 11 12 12 12 12 13 15 15 14 14 14 15 14 13 14 14 15 18 17 15 14 15 18 19 20 20 20 20 21 22 22 23 22 21 23 24 22 21 21 18 17 16 14 14 14 13 13 12 11 11 10 9 9 9 9 10
6 5 4 7 9 11 10 8 9 8 7 7 9 10 10 10 10 11 8 5 7 7 8 6 7 6 6 8 8 6 9 12 12 12 13 13 13 14 14 15 15 15 13 11 12 13 14 16 16 14 15 17 19 19 19 20 21 20 20 22 22 21 22 23 24 25 22 22 22 19 19 19 18 17 16 16 15 13 12 11 11 10 9 9 10 9
4 6 6 7 7 10 10 8 8 8 8 6 4 6 9 10 10 9 7 5 6 3 5 5 7 5 4 6 7 6 8 12 12 10 9 8 9 11 12 14 14 13 12 10 11 12 13 15 16 15 16 17 17 18 20 20 20 20 19 21 22 21 22 23 24 25 22 22 23 21 21 20 20 19 17 16 15 14 12 12 12 11 10 10 10 10
6 7 8 8 8 8 8 6 7 8 8 4 3 2 6 6 6 6 6 7 5 3 3 8 7 6 7 6 6 7 8 10 11 7 4 3 5 8 10 12 13 11 10 10 10 10 11 15 16 14 14 15 15 16 21 21 19 20 20 20 22 22 22 22 23 24 23 23 23 23 22 19 19 19 17 16 15 14 13 13 12 11 11 11 10 11
7 9 10 11 10 7 7 7 7 8 9 4 3 1 4 4 5 5 5 6 4 3 5 9 8 6 7 5 6 7 9 11 10 5 0 1 3 5 7 10 12 10 10 10 9 10 11 13 14 13 11 14 15 15 20 22 19 19 19 20 22 22 22 21 22 23 23 24 23 23 22 19 19 18 17 17 15 14 14 13 13 12 12 11 11 11
5 4 6 9 9 7 9 9 8 9 8 3 1 3 4 4 5 5 5 5 3 4 8 8 9 7 7 6 6 7 8 8 4 2 2 3 4 5 4 7 9 8 7 7 7 8 9 9 11 13 11 14 15 14 18 20 18 19 19 20 21 22 23 20 20 21 22 23 22 21 20 17 16 17 17 17 16 15 15 14 13 13 12 11 11 10
6 2 2 6 7 4 4 5 5 9 7 1 3 6 6 5 4 4 5 4 4 7 9 8 8 7 7 7 5 3 2 2 3 2 4 6 7 6 2 5 7 8 6 4 5 6 6 8 11 13 13 15 15 15 18 19 18 17 19 19 18 20 21 20 19 19 19 22 22 20 19 17 16 18 19 18 17 16 16 15 13 12 12 11 11 10
7 5 4 6 7 4 3 3 4 7 7 4 6 7 5 5 4 4 5 4 6 8 5 4 7 8 8 6 1 3 3 2 4 5 6 8 9 6 1 4 6 7 7 7 7 7 7 9 12 13 15 16 15 14 17 17 16 15 17 18 17 17 18 18 18 18 17 20 21 17 17 19 19 19 19 17 17 16 15 15 14 12 12 11 11 10
8 9 9 9 8 8 7 6 6 6 7 7 7 6 6 6 5 6 6 6 8 6 3 4 5 7 8 4 3 4 2 3 4 5 7 8 8 6 1 3 5 6 7 7 7 8 7 8 11 14 16 17 17 18 19 17 15 14 13 14 15 15 14 14 15 17 18 19 21 18 17 21 21 19 18 16 15 15 15 15 15 14 14 13 12 12
7 9 12 11 8 10 11 7 6 7 8 9 7 7 7 7 6 7 7 6 8 4 4 3 3 6 8 2 5 4 3 5 5 5 7 7 6 5 2 3 5 6 7 7 7 7 7 8 11 15 17 18 20 23 23 20 18 16 13 14 16 14 13 14 13 17 19 18 19 19 19 22 20 18 16 15 14 14 14 14 15 14 13 13 13 12
8 6 9 11 6 10 14 11 8 6 6 9 9 8 8 6 6 7 5 6 7 3 4 4 4 6 6 1 5 3 4 4 4 6 6 5 4 4 2 3 4 6 7 7 7 7 8 11 14 17 18 19 20 23 22 20 20 19 17 18 20 18 19 18 16 18 21 19 18 20 21 20 17 17 15 14 15 16 14 13 14 13 12 13 13 12
9 5 6 8 3 7 13 13 11 8 5 7 6 7 7 7 7 5 2 2 4 4 3 5 4 5 2 4 4 3 3 3 4 6 6 6 5 4 4 2 2 4 7 7 6 7 10 13 15 16 17 18 20 21 21 20 21 21 20 21 22 22 21 21 19 20 23 23 22 24 24 20 17 16 14 14 17 17 14 13 13 13 13 13 12 12
7 4 7 8 5 7 8 8 10 10 5 4 6 7 5 5 7 5 2 2 1 6 4 3 5 5 3 4 4 3 3 4 6 5 6 7 6 5 5 4 2 4 6 6 6 9 11 13 14 15 16 17 18 19 20 20 21 21 21 20 21 21 19 21 22 22 24 27 25 24 23 20 18 17 15 15 18 16 13 13 13 13 13 13 12 13
6 4 6 8 7 7 4 4 8 10 7 5 5 5 3 2 6 6 5 4 5 7 5 4 6 6 4 3 3 3 2 4 5 5 5 7 6 6 6 4 2 3 5 5 7 8 9 11 13 15 16 16 17 18 21 21 20 21 20 19 21 20 19 22 23 23 25 25 23 23 22 20 19 17 15 17 18 16 14 14 14 14 13 13 13 13
4 5 5 8 6 6 6 5 6 8 10 7 3 2 3 4 6 6 6 7 7 7 5 5 6 6 5 2 4 4 2 4 4 4 6 9 9 8 7 6 4 1 2 3 5 6 7 9 12 14 14 14 16 17 20 21 20 19 19 19 22 22 20 22 22 22 23 21 21 23 21 20 19 16 16 18 18 16 16 16 15 15 14 13 13 13
3 6 5 7 7 5 7 7 7 8 9 8 5 5 5 4 4 5 5 6 6 7 6 6 5 3 2 3 5 5 4 4 3 5 7 9 10 9 8 8 8 6 5 3 2 4 7 8 12 14 14 14 15 16 18 21 21 19 19 19 22 22 21 22 22 23 24 21 22 22 19 19 18 16 17 19 18 18 17 16 16 15 14 13 12 12
3 5 4 5 6 5 6 5 5 5 6 7 7 8 7 5 4 4 5 5 6 6 5 5 5 0 4 4 4 5 5 4 5 5 6 7 9 9 9 8 8 7 7 7 5 0 6 9 11 13 13 14 14 14 16 19 20 19 19 19 20 21 22 23 23 24 23 21 20 19 18 18 18 17 18 19 19 18 17 16 15 15 14 14 13 12
3 4 6 5 4 6 4 2 2 2 3 5 6 8 8 6 6 6 7 6 6 7 5 5 5 1 4 3 4 6 6 6 7 6 6 7 8 8 8 8 8 7 7 8 9 7 1 8 12 12 12 12 13 14 15 16 17 18 19 20 20 21 23 23 21 21 20 19 18 18 18 17 18 18 18 20 19 17 17 16 15 15 15 14 13 13
1 3 6 7 6 6 1 4 1 0 1 3 4 4 6 6 6 7 7 6 6 6 5 6 6 1 3 2 4 7 7 7 8 7 6 7 7 7 7 8 8 8 8 9 9 10 7 0 7 11 12 11 11 14 15 14 16 19 20 21 21 21 22 21 19 18 17 17 17 17 16 16 17 18 19 20 19 17 17 17 15 15 15 14 13 12
2 3 6 6 6 6 2 3 3 3 3 5 2 0 3 5 6 6 5 4 5 6 5 6 7 2 3 2 5 7 7 7 7 7 7 6 7 7 7 8 8 8 8 9 9 9 9 9 6 1 6 8 9 12 13 14 16 19 20 21 20 20 20 18 15 14 13 14 16 17 16 14 16 17 18 19 19 18 17 17 16 15 14 13 13 11
3 3 4 5 6 7 6 6 6 4 5 5 1 2 2 4 5 5 5 5 7 8 6 6 5 1 4 3 5 7 9 8 7 7 7 6 7 6 7 7 7 8 8 8 10 10 11 11 11 10 8 2 5 9 12 13 13 15 17 17 17 16 16 15 12 12 9 7 10 11 9 9 12 16 17 17 18 18 17 17 16 15 14 13 12 11
3 2 4 6 6 7 6 4 2 2 4 2 1 2 3 3 4 5 5 6 8 8 8 8 4 3 4 5 6 6 8 8 7 7 7 7 7 6 6 7 7 7 8 9 10 11 11 11 11 13 12 6 3 4 9 11 10 11 12 12 12 12 14 15 15 15 13 10 11 13 10 8 8 10 13 15 17 18 18 17 16 15 14 13 13 12
3 2 4 6 6 5 4 1 2 3 6 3 1 3 5 5 3 4 4 4 4 6 7 7 4 6 8 6 7 7 7 8 7 7 7 7 7 7 7 7 7 7 8 9 10 11 11 11 11 13 14 10 8 8 5 6 7 9 11 12 14 17 17 17 18 17 15 15 15 14 12 11 9 8 10 11 14 16 16 16 16 15 15 14 13 12
3 3 5 6 6 3 2 2 2 4 6 3 4 5 6 7 4 5 5 1 3 6 4 5 5 4 8 7 8 7 7 8 7 7 7 6 7 7 7 7 8 8 9 9 11 12 12 11 10 11 13 12 10 10 9 10 13 13 14 14 14 15 15 16 18 19 18 16 14 13 14 15 15 14 13 12 14 15 14 15 16 15 14 13 12 11
3 2 4 6 4 2 2 1 3 2 2 4 5 5 6 7 5 3 4 4 5 4 1 3 4 4 7 7 8 7 7 8 8 7 6 6 7 7 7 8 9 9 10 11 12 12 13 11 10 10 12 12 10 10 9 11 15 17 17 15 13 12 13 15 16 17 18 17 16 16 16 18 19 18 15 13 14 14 12 12 14 14 13 12 11 11
1 2 3 5 4 4 4 3 4 5 4 5 5 5 5 5 4 3 4 6 6 4 2 5 8 10 8 6 7 7 7 8 8 7 7 8 8 7 8 9 9 10 10 11 12 12 12 11 11 11 11 12 12 12 13 15 15 15 16 15 13 11 12 15 16 16 17 18 19 20 20 21 21 19 17 16 16 15 12 11 11 12 12 11 11 11
2 2 4 4 4 5 5 4 4 4 4 5 6 8 7 5 4 4 5 6 5 2 3 5 7 7 5 5 7 7 7 8 9 9 9 8 8 8 9 9 9 10 11 11 12 11 11 10 10 11 12 13 14 15 16 16 15 15 16 17 17 15 14 16 16 17 18 18 19 21 20 21 22 22 21 20 19 18 16 15 13 12 11 11 10 10
3 2 4 5 5 4 6 6 5 4 3 2 6 10 9 7 5 5 5 6 6 4 1 2 3 4 4 5 6 7 9 10 11 11 9 8 9 9 10 10 10 10 11 11 11 11 11 10 9 10 13 14 16 17 16 16 17 17 17 19 21 20 20 21 20 19 19 18 19 20 18 20 24 25 23 21 21 20 19 17 15 13 13 12 11 10
3 4 4 5 5 3 6 7 6 5 5 2 3 7 7 6 7 7 4 7 8 6 2 1 3 5 6 6 7 8 10 11 11 10 8 8 10 10 10 11 11 11 11 11 11 11 12 11 9 10 14 15 17 17 17 18 20 20 19 20 23 25 26 26 25 23 22 20 21 24 23 24 26 26 24 22 22 21 20 18 15 14 14 14 12 11
4 5 3 3 4 2 5 6 6 5 3 1 3 4 4 4 8 7 4 8 9 5 3 4 5 6 7 6 7 9 10 11 11 9 9 8 8 9 11 11 12 12 11 12 12 12 13 12 11 13 15 16 18 19 19 21 24 25 26 27 30 30 29 29 27 25 25 24 25 25 25 26 26 25 24 23 21 22 21 19 16 15 15 13 12 12
3 4 3 3 3 1 4 6 6 3 1 3 3 6 5 2 6 6 2 7 10 7 5 5 6 7 7 8 9 10 11 13 12 12 12 9 8 9 10 10 11 11 10 11 12 13 13 13 13 15 16 16 17 18 20 24 27 29 30 31 32 31 30 30 29 26 24 24 25 24 24 26 26 25 24 23 21 20 21 19 18 17 16 15 14 14
4 4 3 3 2 2 4 4 3 1 4 4 3 8 7 2 5 5 0 6 11 8 5 5 6 7 9 10 10 10 11 13 13 13 13 11 10 10 9 9 9 10 10 11 12 13 14 13 14 16 18 21 21 20 18 19 22 25 28 30 32 32 32 33 32 29 27 25 24 23 21 21 23 23 22 22 22 21 21 21 19 18 19 19 19 18
4 4 4 3 3 2 2 2 3 3 4 5 3 6 6 3 5 5 1 4 10 8 3 4 6 8 9 10 11 11 11 11 11 11 12 11 10 10 10 11 10 11 12 12 13 14 13 13 14 17 19 23 24 24 22 20 20 22 24 27 28 27 28 29 26 24 26 26 25 24 23 21 22 21 20 20 21 22 23 22 19 18 20 20 19 18
2 2 3 2 2 3 3 4 3 3 3 5 6 7 6 4 4 4 3 1 7 8 3 4 6 7 8 11 11 9 7 8 8 7 9 11 10 9 10 12 12 12 13 12 13 14 13 12 14 17 19 20 19 19 21 21 22 22 22 24 25 23 23 23 19 18 20 19 18 19 20 21 22 21 19 18 19 19 19 18 16 16 16 16 16 16
2 2 2 2 3 3 3 3 2 1 2 5 9 9 8 5 3 4 4 1 5 7 3 6 8 7 7 8 6 4 3 5 5 4 6 8 9 8 8 10 12 13 14 13 13 13 12 12 13 15 18 19 18 16 15 16 19 21 21 21 21 20 20 19 17 17 17 15 14 13 14 16 17 17 16 16 16 15 14 13 13 12 11 12 14 15
3 1 2 3 3 2 2 3 3 3 3 8 11 10 8 4 2 4 2 1 4 5 5 6 7 7 5 3 2 2 2 4 6 3 3 5 6 8 9 10 12 13 13 13 12 12 12 12 12 14 15 16 16 15 14 15 17 19 18 17 17 18 18 17 16 16 16 15 15 15 15 16 16 15 14 14 13 13 12 12 11 10 9 10 11 12
5 3 1 3 4 3 3 5 5 3 3 9 13 10 6 2 3 1 2 2 4 5 6 6 6 6 5 5 5 5 5 6 6 3 3 2 6 9 11 12 14 14 13 12 12 12 13 13 13 14 14 13 14 14 14 14 16 17 16 16 17 17 15 14 14 14 15 15 15 15 15 15 15 14 13 12 12 11 10 10 10 8 7 6 6 8
3 2 2 2 4 3 4 6 5 3 5 11 14 9 4 1 1 2 3 2 4 5 6 7 7 8 9 10 9 8 7 7 7 6 5 7 8 9 11 13 14 13 13 13 14 14 13 13 14 14 14 14 14 14 13 14 16 15 14 15 16 14 13 13 13 13 13 14 14 14 14 13 13 12 11 10 9 9 8 8 8 7 6 5 5 6
3 1 3 5 4 3 5 5 4 3 5 13 13 6 5 4 2 3 4 4 5 6 6 7 8 9 11 12 11 10 9 9 9 9 9 8 8 10 12 12 11 12 11 12 13 13 13 13 13 13 14 14 14 13 13 14 15 14 13 15 14 13 12 13 13 13 13 13 13 12 12 12 11 10 9 8 8 8 8 7 6 6 5 5 5 5
5 3 3 3 3 2 4 5 4 2 5 11 9 4 5 5 3 4 5 5 5 5 6 7 8 9 10 11 10 10 10 9 8 8 8 8 10 11 11 10 11 11 11 11 11 11 12 13 12 13 14 14 15 15 14 13 14 13 13 13 11 11 11 11 11 12 12 12 12 11 10 11 11 10 9 8 7 7 7 6 6 5 6 5 5 4
6 6 7 7 6 6 6 4 2 2 4 6 6 5 6 6 5 6 7 7 6 6 7 8 8 9 9 10 10 10 8 7 6 6 7 8 9 10 10 10 10 10 10 11 11 11 12 12 12 12 13 13 14 15 14 14 14 14 13 11 9 9 10 9 9 10 10 10 10 9 9 9 9 10 9 8 7 7 7 7 6 6 6 6 5 5
6 5 6 8 9 9 9 6 4 4 6 7 7 6 7 8 7 7 8 8 7 8 8 8 9 9 9 9 9 8 7 7 7 7 7 8 8 9 10 10 9 9 9 10 10 10 11 11 11 11 12 12 12 13 13 13 13 13 12 10 9 9 9 9 9 10 10 10 9 9 9 8 8 8 8 8 8 8 8 7 6 6 5 5 5 4
6 5 6 7 6 6 7 7 8 9 9 9 9 9 9 9 8 8 8 9 10 10 10 9 9 9 8 7 7 7 7 7 8 8 8 8 9 9 9 9 8 8 8 8 8 8 8 9 10 10 10 10 10 11 11 11 11 11 10 9 9 9 9 9 9 9 10 9 9 9 9 9 8 8 8 8 8 8 8 8 7 6 6 5 5 5
4 4 7 10 9 8 8 10 11 11 11 11 10 10 10 10 11 11 10 10 11 11 10 9 8 6 6 5 5 6 7 7 7 8 8 7 8 8 8 7 6 6 6 7 6 6 6 7 8 8 9 9 9 9 9 10 9 9 8 8 8 8 8 9 9 9 9 9 9 9 9 9 9 8 7 8 8 8 9 8 7 7 7 7 6 6
1 3 7 10 11 10 10 11 11 12 12 12 12 11 10 11 12 12 12 12 11 11 10 9 7 6 5 4 4 6 7 7 7 8 7 7 7 7 6 5 5 5 5 5 4 4 6 6 7 7 7 7 7 7 8 8 8 8 8 7 7 7 7 8 8 8 8 8 9 9 8 8 9 8 7 7 7 8 9 9 8 6 6 7 7 6
3 5 6 8 8 8 8 7 7 8 9 9 10 11 10 10 12 12 12 12 11 10 11 10 9 8 6 4 4 5 6 6 6 6 7 7 7 6 5 4 4 4 4 4 4 4 5 5 5 5 5 4 4 4 5 6 6 6 6 6 6 6 7 7 7 8 8 9 9 9 8 8 8 7 7 6 6 5 7 8 9 8 6 5 6 6
4 3 3 5 8 8 9 7 6 8 9 9 9 9 9 9 10 10 10 10 10 10 11 11 10 9 7 6 6 6 6 6 5 5 6 7 7 6 5 4 4 4 4 4 3 3 4 4 3 3 3 3 2 2 3 3 3 4 4 4 4 5 6 6 6 6 7 7 8 9 8 8 7 7 6 6 5 4 4 4 7 9 8 5 3 4
Wind_Direction
199 206 202 218 222 215 210 217 247 305 338 280 263 258 258 255 251 164 180 242 274 277 266 254 261 263 262 262 251 216 194 232 239 224 223 221 219 218 217 220 217 213 212 211 214 215 211 207 202 196 188 181 174 171 175 176 176 178 175 174 178 182 183 181 183 187 189 185 179 179 182 177 175 175 170 169 172 173 175 174 175 178 178 176 174 172
203 222 220 222 231 227 206 210 244 276 259 260 262 261 256 257 258 156 195 253 211 251 265 258 262 262 261 262 256 237 214 231 241 234 229 227 225 223 219 222 221 213 204 208 213 214 214 211 203 194 184 180 177 175 178 179 177 175 171 175 181 181 182 184 185 188 191 191 187 184 183 180 174 173 173 173 172 172 172 171 175 179 177 175 174 175
206 228 229 214 183 168 185 202 217 231 247 249 250 260 259 263 274 229 199 197 183 233 279 281 275 268 266 264 258 245 232 235 241 241 237 229 228 228 222 221 221 214 200 203 209 209 212 211 205 197 183 177 174 173 180 183 178 174 171 176 184 183 182 185 185 187 193 194 190 186 184 176 170 177 179 173 170 168 169 172 176 179 176 174 177 180
206 222 223 190 165 187 192 195 211 226 237 237 242 252 251 257 275 244 174 170 206 260 284 287 284 275 268 259 252 245 238 241 239 239 241 233 231 231 227 225 221 216 206 201 203 205 208 207 204 200 185 171 169 172 180 186 180 176 176 176 182 188 188 188 189 192 195 194 191 189 185 175 171 180 177 169 167 167 169 172 174 176 173 171 177 180
227 98 151 188 185 204 207 199 214 231 237 234 237 249 261 268 271 269 258 255 270 257 248 265 273 260 252 244 240 228 219 232 232 228 232 231 233 232 229 227 223 221 213 200 199 201 206 205 197 195 187 172 174 177 180 186 183 180 181 178 181 188 192 193 194 195 194 189 188 188 185 179 174 174 172 171 169 168 172 170 168 170 171 174 178 179
239 117 146 208 198 210 217 211 217 228 250 245 226 235 258 269 270 272 272 270 276 250 204 228 265 253 232 235 232 197 194 217 218 218 225 226 230 231 229 225 222 222 214 200 198 201 209 207 190 184 185 177 178 179 178 183 186 186 185 180 178 183 192 196 196 195 193 190 187 185 185 181 173 172 177 176 169 169 172 167 166 168 171 178 179 179
229 151 182 215 201 211 221 225 220 218 249 256 211 223 246 257 264 269 263 236 260 275 156 202 266 272 242 221 203 186 200 212 207 211 228 232 234 236 234 230 224 218 211 202 201 203 208 207 193 181 182 180 175 176 178 181 186 188 188 184 178 180 188 195 195 192 190 190 188 186 186 181 174 175 178 175 168 166 166 161 164 166 170 178 180 179
202 189 201 208 203 212 218 223 208 202 240 259 100 214 240 246 259 257 245 231 258 314 179 210 245 268 264 233 188 194 218 220 207 200 222 250 258 254 249 241 230 217 209 205 203 201 203 208 199 179 175 179 170 170 178 180 186 189 189 187 183 182 186 192 193 189 189 191 188 185 184 183 184 181 172 168 166 161 159 158 161 166 170 175 178 179
179 203 203 204 214 222 226 234 211 201 237 258 96 235 261 268 271 258 239 233 248 282 235 214 214 242 260 227 176 196 226 227 204 173 125 337 316 286 266 249 231 213 209 208 200 196 200 206 190 159 161 177 167 167 176 178 185 190 191 191 188 189 190 191 190 188 192 192 185 183 184 186 189 179 163 162 161 157 159 160 163 168 170 170 173 176
143 209 214 210 217 223 229 237 221 208 231 264 158 240 258 258 260 249 242 239 216 240 253 223 199 233 261 228 196 201 226 235 200 122 22 11 352 319 277 248 225 201 201 206 198 195 193 191 163 139 148 164 162 171 175 177 185 187 190 191 190 194 194 191 189 188 192 189 184 187 188 189 186 170 159 160 159 159 161 162 167 169 166 166 169 170
117 113 232 218 221 232 238 227 213 218 229 252 227 232 230 221 225 226 233 244 223 231 248 231 203 231 263 249 229 190 200 303 339 349 356 4 350 338 287 230 206 185 172 159 169 171 157 146 133 133 147 153 161 172 168 173 185 186 189 189 187 193 194 191 189 186 187 188 190 191 185 189 187 169 162 163 161 162 162 162 166 166 163 165 167 168
170 184 206 217 223 234 249 210 187 210 218 223 236 236 228 209 203 217 207 209 239 241 235 213 205 224 251 259 220 101 91 8 343 334 349 353 346 347 315 195 178 171 159 142 143 137 127 124 126 140 151 150 155 153 150 167 182 185 190 191 190 191 190 189 186 183 183 185 189 187 182 190 189 171 165 164 161 160 161 163 164 162 162 165 168 169
205 215 216 214 213 213 231 216 177 186 205 218 229 230 233 218 198 220 215 203 235 235 139 150 201 227 250 260 98 102 75 26 8 354 356 348 340 346 356 162 159 162 159 157 155 145 139 135 138 152 153 149 148 141 144 167 182 183 187 191 194 195 194 190 181 179 184 185 182 177 185 198 191 173 166 163 160 159 159 162 163 164 164 167 170 169
211 214 211 212 206 203 220 222 186 188 198 210 221 219 229 230 217 228 226 221 235 217 130 158 220 248 250 233 81 73 42 32 19 16 10 347 336 344 7 138 155 163 161 166 166 158 158 152 153 158 156 157 157 152 155 169 177 177 175 180 186 187 192 191 179 177 184 188 183 177 192 205 190 172 167 161 158 158 158 162 165 167 168 168 171 169
226 218 198 205 199 186 204 222 224 217 200 205 219 229 238 242 240 245 245 246 248 220 152 170 209 257 254 132 79 73 66 47 28 36 25 360 1 3 11 118 153 166 155 148 151 156 163 164 163 163 163 165 163 158 160 167 171 171 170 176 182 182 182 181 177 181 184 186 185 183 196 205 189 173 168 160 159 158 155 159 164 167 168 166 166 165
237 242 172 181 173 174 197 213 223 237 224 198 210 231 242 246 245 254 280 301 295 267 205 182 220 269 250 136 123 124 108 73 46 46 38 27 34 32 26 51 129 149 140 134 141 153 162 167 166 165 166 164 160 159 160 164 170 171 171 176 185 189 183 173 175 185 185 184 186 187 191 197 188 175 165 160 164 161 153 158 162 162 162 160 158 158
238 238 151 163 186 199 212 211 206 224 226 180 205 225 228 251 258 256 224 144 267 268 246 200 241 256 204 163 139 140 146 94 59 44 46 43 44 56 50 24 38 116 137 149 159 167 173 174 169 166 167 164 166 166 162 164 171 174 173 175 185 190 180 171 176 184 183 182 184 185 189 194 188 174 164 163 163 157 153 158 158 156 154 152 152 155
245 242 164 179 196 185 209 245 210 219 226 197 208 222 200 239 255 252 244 222 228 252 244 214 245 256 244 218 137 151 161 88 60 40 53 52 43 59 72 59 69 136 174 176 167 177 184 181 174 171 171 169 173 173 166 165 169 170 172 178 185 186 177 176 179 183 184 180 177 181 190 194 185 171 165 164 160 155 155 157 155 153 152 152 154 157
240 247 193 196 207 162 165 226 218 208 222 234 260 267 228 236 231 219 234 245 243 252 252 234 241 253 260 242 130 142 98 60 47 37 49 49 38 34 43 46 50 87 218 202 181 181 175 173 171 170 173 173 178 181 172 163 163 169 174 182 190 187 181 182 179 181 189 182 173 181 190 188 179 168 162 160 159 158 158 158 156 157 157 156 159 161
225 248 216 193 199 175 175 211 221 196 202 227 253 249 237 253 254 227 228 242 248 254 255 247 238 238 304 30 78 86 64 39 24 43 47 42 37 28 22 22 21 18 5 342 248 183 165 174 176 172 172 173 182 193 179 161 159 170 175 182 191 188 183 185 178 179 188 184 176 182 184 177 173 169 162 160 161 162 162 162 161 160 161 160 160 162
209 239 241 185 176 199 209 213 231 216 199 207 220 224 222 225 238 246 246 244 255 262 255 254 252 183 45 27 49 65 60 32 20 48 58 45 40 37 30 22 17 17 14 5 354 238 169 173 176 174 174 178 187 197 186 167 160 165 172 180 187 182 177 181 179 177 181 179 176 177 176 173 172 169 164 163 165 165 164 164 164 163 162 159 159 161
221 232 241 228 203 216 211 88 33 321 265 238 233 229 227 228 229 236 240 232 243 262 265 269 268 101 67 15 40 61 58 44 32 44 61 52 42 38 33 28 25 19 11 10 5 352 248 176 175 179 184 189 189 188 187 178 162 159 168 176 180 178 178 181 180 176 175 174 174 175 172 171 170 168 166 166 168 168 165 164 164 164 161 158 159 160
235 257 245 244 247 244 221 65 62 336 307 257 253 254 247 247 242 237 241 234 229 238 249 268 266 132 80 25 63 75 67 53 42 44 54 52 44 39 35 32 32 28 18 16 13 0 350 296 177 184 192 193 185 180 184 182 166 160 167 174 179 181 181 180 176 170 169 169 170 172 172 169 168 168 168 168 170 169 165 163 163 164 162 159 160 162
184 245 249 243 248 252 226 139 172 185 222 227 209 284 262 260 260 256 265 269 248 236 230 249 251 167 91 75 91 92 81 64 48 45 50 53 48 36 31 31 30 32 30 24 21 13 8 14 20 293 218 202 183 176 179 179 170 166 168 173 178 182 182 179 170 162 166 171 169 169 172 169 163 164 166 168 170 169 165 162 163 164 163 161 162 164
206 213 234 243 245 234 212 189 182 194 234 239 167 76 310 283 268 259 260 253 250 248 238 243 252 123 101 110 107 100 90 75 53 47 51 55 52 38 31 33 29 31 37 37 34 28 22 20 16 3 348 331 161 166 172 173 169 164 164 167 175 181 177 165 146 132 137 158 153 141 145 157 158 162 165 166 167 168 165 162 163 165 165 165 164 164
232 204 211 236 243 233 233 225 186 237 263 244 140 66 12 320 263 250 250 237 242 249 239 244 251 123 130 135 118 107 97 82 60 52 56 53 51 46 39 36 34 34 37 41 41 35 27 20 12 4 356 359 64 139 166 165 159 155 152 152 155 150 137 134 140 137 125 119 115 103 97 105 124 147 163 168 169 168 166 165 165 167 168 166 165 164
229 214 212 232 242 247 281 9 88 288 284 282 334 5 15 353 292 255 241 227 253 255 236 244 237 160 157 146 116 101 93 87 67 52 55 51 46 47 45 40 40 42 41 42 43 40 33 19 7 1 353 358 26 32 54 99 116 134 129 113 113 122 131 143 157 156 137 125 129 135 141 138 128 135 150 158 164 166 166 167 168 168 168 166 164 163
246 222 204 219 232 248 339 36 131 266 287 323 355 353 2 358 326 252 242 277 295 258 241 303 301 172 145 124 106 97 92 89 74 55 51 50 46 44 48 50 49 47 43 42 41 40 34 18 3 360 354 357 24 35 42 62 74 90 102 103 109 131 149 150 148 151 148 143 146 159 169 171 173 175 169 158 157 160 162 166 168 167 166 164 162 161
274 246 193 205 212 159 116 116 122 113 9 19 11 359 353 354 352 288 292 354 338 290 291 338 340 72 88 85 84 82 81 82 77 67 60 61 58 53 53 53 50 46 41 38 36 36 37 25 7 2 358 359 21 37 42 60 69 76 85 97 113 138 153 145 134 138 145 151 159 166 171 176 179 180 174 164 157 155 153 157 162 163 161 159 156 155
265 251 194 204 200 151 146 155 135 122 101 69 38 18 359 347 357 358 354 356 338 329 45 91 88 70 52 59 71 69 72 79 78 70 62 59 58 57 59 56 51 47 42 40 38 36 37 31 13 8 10 12 24 35 40 50 62 69 74 83 94 110 135 145 141 134 133 138 147 152 156 161 166 168 167 163 159 153 143 138 145 152 154 152 150 148
268 218 179 203 209 161 149 159 154 144 119 89 58 32 16 6 10 12 7 354 327 334 70 106 102 76 48 65 79 78 76 77 73 63 56 55 56 58 62 59 55 52 46 43 45 42 39 36 22 19 21 22 29 38 44 49 58 66 71 80 86 86 99 114 119 122 122 122 128 134 137 141 146 152 155 158 160 156 148 141 139 140 139 136 135 137
288 224 181 215 229 178 162 171 156 150 163 108 53 27 13 10 4 349 2 10 346 336 18 157 134 98 103 102 96 90 79 72 69 62 57 59 61 63 64 59 55 54 50 49 49 45 43 37 27 29 34 33 35 42 48 56 64 67 69 79 91 99 104 103 101 104 105 108 118 125 126 128 133 137 140 146 152 152 151 149 144 141 136 131 126 124
251 230 199 216 232 181 164 173 164 172 209 209 45 12 352 356 354 340 2 25 3 338 325 347 51 91 128 132 109 97 83 73 68 61 61 69 67 66 66 64 62 58 56 55 52 50 50 40 29 41 50 49 49 49 52 61 67 70 72 80 92 103 107 105 104 104 104 108 116 118 119 123 128 131 132 136 140 143 145 145 141 138 134 127 122 119
241 245 234 225 242 194 151 172 186 202 235 164 82 6 332 342 355 349 8 21 11 12 37 45 75 106 131 127 107 102 89 78 72 60 55 63 68 70 68 66 68 65 59 56 52 50 48 37 34 47 53 55 59 60 62 66 72 76 81 87 94 98 98 98 98 98 100 104 108 111 116 121 123 125 126 127 131 134 136 136 133 131 127 123 118 113
260 257 249 233 251 170 147 185 206 213 20 141 121 21 4 342 349 346 26 32 20 21 43 75 108 110 111 109 103 103 95 85 76 60 49 48 57 69 72 70 70 66 60 56 53 49 40 32 35 44 46 52 63 67 68 70 75 78 80 85 90 92 93 95 95 93 94 99 101 103 109 114 117 119 121 124 127 127 127 129 130 129 131 135 132 119
261 251 231 219 240 199 182 202 217 105 76 124 120 20 16 9 350 339 68 49 24 8 22 81 110 105 107 112 108 108 105 93 78 57 45 46 52 59 68 73 71 66 61 57 54 52 46 37 38 44 52 63 69 70 69 71 75 77 77 81 86 88 91 92 92 91 93 96 98 100 101 104 108 112 114 119 120 118 118 121 124 123 125 130 131 124
261 258 244 218 208 219 190 105 107 146 106 79 45 15 9 347 343 331 278 38 24 13 32 101 113 113 117 119 118 121 113 94 78 51 34 37 49 59 69 74 75 74 72 67 63 61 54 43 45 52 62 68 68 68 72 76 78 78 78 80 82 83 85 86 85 86 90 92 95 100 103 104 105 105 106 107 108 110 113 114 113 113 115 117 116 114
250 264 288 252 208 231 212 127 127 185 131 52 9 359 360 332 309 295 252 24 20 13 42 117 113 116 127 128 132 140 118 85 72 44 26 29 39 52 66 74 76 78 78 75 73 69 59 51 57 64 66 63 57 58 66 73 75 75 74 75 75 74 74 74 73 76 81 85 88 93 98 102 103 103 102 102 101 104 108 108 106 107 110 109 107 104
164 202 264 249 205 221 212 162 105 95 84 22 348 344 349 335 285 259 232 156 24 13 58 121 121 127 138 137 142 167 129 96 94 66 34 26 30 35 47 64 73 77 79 78 77 77 71 65 65 67 66 59 49 46 53 60 66 69 69 69 70 68 64 63 64 69 73 75 78 82 84 89 94 96 98 102 104 105 106 105 104 105 106 108 109 106
90 132 217 215 186 176 169 128 86 73 53 360 341 336 336 324 234 228 242 68 39 33 68 101 113 121 126 118 88 22 46 102 116 98 350 352 33 45 44 54 67 74 77 76 76 80 80 74 67 65 62 56 48 46 51 56 61 65 67 68 67 65 62 61 62 66 68 68 73 79 83 85 86 86 87 92 100 105 108 110 111 110 106 109 113 112
61 57 227 187 143 117 116 111 95 84 31 353 339 336 339 301 201 234 346 35 54 54 56 54 64 79 74 63 69 62 53 76 94 79 338 11 72 68 59 61 65 67 68 67 66 69 70 64 59 58 56 52 52 54 56 60 65 66 67 69 68 65 64 64 65 66 67 67 68 71 75 76 77 80 82 85 89 92 93 96 102 104 98 98 107 111
34 42 55 96 102 100 112 110 107 105 40 354 334 331 351 329 206 25 29 81 86 61 50 45 54 76 84 81 85 92 94 94 102 105 91 85 88 84 80 78 73 69 69 68 67 67 67 61 56 52 48 47 51 55 56 61 67 67 68 70 70 70 70 70 70 70 69 69 69 67 65 65 65 68 72 76 82 83 81 83 90 95 96 97 98 99
337 327 90 76 62 82 100 93 86 92 24 351 337 339 20 15 25 70 84 100 82 60 56 59 65 83 95 96 96 101 107 107 107 106 96 84 81 85 87 88 84 79 76 72 69 69 71 68 59 51 47 42 44 48 52 59 66 67 68 70 71 73 76 74 74 74 73 72 70 66 64 62 60 61 62 63 67 73 74 76 80 83 88 94 100 103
348 343 87 59 2 35 81 68 47 9 335 342 352 22 32 19 44 106 107 97 77 67 72 72 69 74 85 95 100 102 104 105 102 101 97 91 87 87 89 90 89 87 84 80 75 74 74 73 65 58 53 48 47 48 48 56 66 68 69 73 76 78 79 77 74 73 71 69 67 64 62 59 54 52 52 51 53 57 59 59 60 61 62 63 70 84
39 48 78 72 53 61 72 69 50 350 332 355 24 39 41 54 80 95 94 91 83 81 87 86 82 82 87 98 104 103 100 98 94 95 97 96 95 96 98 99 99 98 96 90 83 78 78 75 70 66 62 55 53 52 49 52 60 62 61 67 74 79 81 80 77 73 70 69 66 63 62 60 55 51 47 42 44 47 45 43 45 47 48 47 51 60
71 74 88 88 88 85 77 77 84 69 54 51 53 51 55 68 82 88 89 90 92 98 101 102 104 106 106 105 102 100 100 100 99 98 97 97 96 97 100 104 104 103 103 99 94 90 87 82 76 71 66 58 54 55 53 51 53 54 52 53 59 67 73 74 73 71 68 68 67 63 61 60 56 51 46 42 43 43 39 38 40 43 45 46 47 51
80 81 87 93 108 101 78 75 80 80 77 76 75 75 75 76 82 87 92 99 105 107 108 109 111 112 106 97 92 93 98 101 99 96 93 92 93 93 96 99 98 95 97 98 97 94 90 86 83 78 72 63 57 56 56 54 52 50 48 47 48 52 55 57 59 60 58 57 57 55 53 51 47 45 45 42 41 40 38 37 37 39 40 38 34 34
69 75 82 87 95 97 92 93 91 87 86 85 83 84 85 87 91 94 102 109 112 111 110 108 107 104 94 89 89 94 96 95 90 86 80 74 75 79 86 96 101 100 99 96 91 85 82 82 85 84 79 71 62 59 59 56 54 51 49 47 46 46 49 50 50 50 49 46 43 41 39 38 37 37 39 41 41 40 35 31 31 37 38 30 22 18
50 112 100 98 99 100 104 107 104 96 90 84 83 87 91 96 99 102 109 116 119 119 117 113 112 115 110 99 96 101 103 101 98 98 92 84 79 75 75 87 103 114 117 115 105 92 89 89 88 86 84 77 67 63 60 56 53 49 48 49 49 49 52 52 49 46 44 40 38 34 30 31 31 31 34 40 46 49 42 32 30 38 38 28 25 32
95 105 107 114 111 105 109 109 101 99 98 91 92 96 100 106 110 111 117 124 129 130 132 130 131 133 134 126 119 114 109 104 100 97 92 89 91 90 87 93 107 120 129 130 124 114 109 107 104 104 102 97 83 73 64 57 51 46 42 42 42 43 44 43 42 41 39 37 34 27 23 27 30 30 32 36 43 57 56 44 39 38 32 22 27 38
54 41 59 105 104 100 106 104 93 100 104 102 103 105 105 111 115 116 123 132 137 140 142 142 143 145 146 147 142 127 114 116 117 101 88 86 87 85 82 87 98 114 127 132 129 120 108 100 105 115 114 112 114 100 83 72 63 56 49 43 39 39 39 38 40 40 38 37 33 22 18 24 27 25 28 31 34 44 63 69 54 37 23 16 21 20